Tracking 30692 objects as of 17-Jun-2025
HD Live streaming from Space Station
objects crossing your sky now

STARLINK-5953

Track STARLINK-5953 now!
10-day predictions
STARLINK-5953 is classified as:


NORAD ID: 56799
Int'l Code: 2023-078AJ
Perigee: 577.0 km
Apogee: 581.4 km
Inclination: 70.0 °
Period: 96.1 minutes
Semi major axis: 6950 km
RCS: Unknown
Launch date: May 31, 2023
Source: United States (US)
Launch site: AIR FORCE WESTERN TEST RANGE (AFWTR)
Your satellite tracking list
Your tracking list is empty




NASA's NSSDC Master Catalog

Two Line Element Set (TLE):
1 56799U 23078AJ  25167.61138597  .00000408  00000-0  41977-4 0  9991
2 56799  69.9998 295.3535 0003190 268.9307  91.1487 14.98331800112829
Source of the keplerian elements: AFSPC